Probability
0 0 29 26 23 23 26 32 13 13 3 3 3 3 3 3 3 3 3 3 3 3 3 0 0 0 0 0 0 0 0 0 0 0 0 0 0 0 0 0 0 0 0
0 3 29 26 23 19 29 16 10 3 0 3 3 3 3 3 3 3 3 3 3 0 0 0 0 0 0 0 0 0 0 0 0 0 0 0 0 0 0 0 0 0 0
3 6 16 26 23 23 19 10 6 3 0 0 3 3 3 3 3 3 3 3 0 0 0 0 0 0 0 0 0 0 0 0 0 0 0 0 0 0 0 0 0 0 0
3 6 10 26 23 19 16 6 3 3 0 0 3 3 3 3 3 3 0 0 0 0 0 0 0 0 0 0 0 0 0 0 0 0 0 0 0 0 0 0 0 0 0
3 3 10 16 23 16 16 6 3 0 0 0 3 3 3 0 0 0 0 0 0 0 0 0 0 0 0 0 0 0 0 0 0 0 0 0 0 0 0 0 0 0 0
3 3 10 16 16 16 10 6 3 0 0 0 3 3 0 0 0 0 0 0 0 0 0 0 0 0 0 0 0 0 0 0 0 0 0 0 0 0 0 0 0 0 0
3 3 6 19 19 10 6 6 0 0 0 0 0 0 0 0 0 0 0 0 0 0 0 0 0 0 0 0 0 0 0 0 0 0 0 0 0 0 0 0 0 0 0
3 3 3 16 16 10 6 6 3 0 0 0 0 0 0 0 0 0 0 0 0 0 0 0 0 0 0 0 0 0 0 0 0 0 0 0 0 0 0 0 0 0 0
3 3 3 3 6 10 6 6 3 0 0 0 0 0 0 0 0 0 0 0 0 0 0 0 0 0 0 0 0 0 0 0 0 0 0 0 0 0 0 0 0 0 0
3 3 3 3 3 3 3 3 0 0 0 0 0 0 0 0 0 0 0 0 0 0 0 0 0 0 0 0 0 0 0 0 0 0 0 0 0 0 0 0 0 0 0
3 3 3 3 3 3 0 0 0 0 0 0 0 0 0 0 0 0 0 0 0 0 0 0 0 0 0 0 0 0 0 0 0 0 0 0 0 0 0 0 0 0 0
0 3 3 3 3 3 0 0 0 0 0 0 0 0 0 0 0 0 0 0 0 0 0 0 0 0 0 0 0 0 0 0 0 0 0 0 0 0 0 0 0 0 0
0 3 3 3 3 3 0 0 0 0 0 0 0 0 0 0 0 0 0 0 0 0 0 0 0 0 0 0 0 0 0 0 0 0 0 0 0 0 0 0 0 0 0
0 0 0 3 3 3 0 0 0 0 0 0 0 0 0 0 0 0 0 0 0 0 0 0 0 0 0 0 0 0 0 0 0 0 0 0 0 0 0 0 0 0 0
0 0 0 3 3 0 0 0 0 0 0 0 0 0 0 0 0 0 0 0 0 0 0 0 0 0 0 0 0 0 0 0 0 0 0 0 0 0 0 0 0 0 0
0 0 0 3 3 0 0 0 0 0 0 0 0 0 0 0 0 0 0 0 0 0 0 0 0 0 0 0 0 0 0 0 0 0 0 0 0 0 0 0 0 0 0
0 0 0 0 3 0 0 0 0 0 0 0 0 0 0 0 0 0 0 0 0 0 0 0 0 0 0 0 0 0 0 0 0 0 0 0 0 0 0 0 0 0 0
0 0 0 0 3 0 0 0 0 0 0 0 0 0 0 0 0 0 0 0 0 0 0 0 0 0 0 0 0 0 0 0 0 0 0 0 0 0 0 0 0 0 0
0 0 0 0 0 0 0 0 0 0 0 0 0 0 0 0 0 0 0 0 0 0 0 0 0 0 0 0 0 0 0 0 0 0 0 0 0 0 0 0 0 0 0
0 0 0 0 0 0 0 0 0 0 0 0 0 0 0 0 0 0 0 0 0 0 0 0 0 0 0 0 0 0 0 0 0 0 0 0 0 0 0 0 0 0 0
0 0 0 0 0 0 0 0 0 0 0 0 0 0 0 0 0 0 0 0 0 0 0 0 0 0 0 0 0 0 0 0 0 0 0 0 0 0 0 0 0 0 0
0 0 0 0 0 0 0 0 0 0 0 0 0 0 0 0 0 0 0 0 0 0 0 0 0 0 0 0 0 0 0 0 0 0 0 0 0 0 0 0 0 0 0
0 0 0 0 0 0 0 0 0 0 0 0 0 0 0 0 0 0 0 0 0 0 0 0 0 0 0 0 0 0 0 0 0 0 0 0 0 0 0 0 0 0 0
0 0 0 0 0 0 0 0 0 0 0 0 0 0 0 0 0 0 0 0 0 0 0 0 0 0 0 0 0 0 0 0 0 0 0 0 0 0 0 0 0 0 0
0 0 0 0 0 0 0 0 0 0 0 0 0 0 0 0 0 0 0 0 0 0 0 0 0 0 0 0 0 0 0 0 0 0 0 0 0 0 0 0 0 0 0
0 0 0 0 0 0 0 0 0 0 0 0 0 0 0 0 0 0 0 0 0 0 0 0 0 0 0 0 0 0 0 0 0 0 0 0 0 0 0 0 0 0 0
Height
5856 5858 5860 5862 5864 5866 5868 5870 5872 5873 5875 5876 5877 5878 5879 5880 5880 5881 5881 5881 5882 5882 5882 5882 5881 5881 5880 5880 5879 5879 5878 5877 5877 5876 5875 5874 5873 5872 5871 5870 5869 5868 5867
5853 5855 5858 5860 5862 5864 5866 5868 5870 5871 5873 5874 5875 5877 5877 5878 5879 5879 5880 5880 5880 5881 5881 5881 5880 5880 5880 5879 5878 5878 5877 5876 5876 5875 5874 5873 5872 5871 5870 5869 5867 5866 5865
5850 5852 5854 5857 5859 5861 5863 5866 5868 5869 5871 5872 5873 5875 5876 5876 5877 5878 5878 5879 5879 5879 5879 5879 5879 5879 5879 5878 5877 5877 5876 5875 5875 5874 5873 5872 5870 5869 5868 5867 5866 5864 5862
5846 5848 5851 5854 5856 5858 5861 5863 5865 5867 5869 5870 5871 5872 5874 5875 5875 5876 5877 5877 5878 5878 5878 5878 5878 5878 5877 5877 5876 5875 5875 5874 5873 5872 5871 5870 5869 5867 5866 5865 5863 5862 5860
5842 5844 5848 5850 5853 5855 5858 5860 5862 5864 5866 5867 5869 5870 5872 5873 5874 5874 5875 5876 5876 5876 5877 5877 5877 5876 5876 5875 5875 5874 5873 5872 5872 5871 5870 5868 5867 5866 5864 5862 5861 5859 5857
5837 5840 5843 5846 5849 5852 5854 5857 5859 5861 5863 5865 5866 5868 5869 5870 5872 5872 5873 5874 5874 5875 5875 5875 5875 5875 5874 5874 5873 5872 5872 5871 5870 5869 5868 5866 5865 5863 5862 5860 5858 5856 5853
5833 5836 5839 5842 5845 5848 5851 5854 5856 5858 5860 5862 5864 5865 5867 5868 5869 5870 5871 5872 5872 5873 5873 5873 5873 5873 5873 5872 5871 5871 5870 5869 5868 5867 5865 5864 5862 5861 5859 5857 5855 5852 5850
5828 5831 5834 5838 5841 5844 5847 5850 5852 5855 5857 5859 5861 5863 5864 5866 5867 5868 5869 5870 5870 5871 5871 5871 5871 5871 5871 5870 5869 5869 5868 5867 5865 5864 5863 5861 5859 5858 5856 5853 5851 5849 5846
5822 5826 5829 5833 5837 5840 5843 5846 5848 5851 5854 5856 5858 5860 5862 5863 5864 5865 5867 5867 5868 5869 5869 5869 5869 5869 5869 5868 5867 5866 5865 5864 5863 5862 5860 5858 5856 5854 5852 5850 5847 5844 5842
5817 5821 5824 5828 5832 5835 5839 5842 5844 5847 5850 5852 5854 5857 5858 5860 5862 5863 5864 5865 5866 5866 5867 5867 5867 5867 5866 5866 5865 5864 5863 5862 5860 5859 5857 5855 5853 5851 5848 5846 5843 5840 5837
5811 5815 5819 5823 5827 5830 5834 5837 5840 5843 5846 5849 5851 5853 5855 5857 5858 5860 5861 5862 5863 5864 5864 5864 5865 5864 5864 5863 5862 5861 5860 5859 5857 5856 5854 5852 5849 5847 5844 5841 5839 5836 5833
5805 5810 5813 5817 5821 5825 5829 5833 5836 5839 5842 5845 5847 5849 5852 5853 5855 5857 5858 5859 5860 5861 5861 5862 5862 5862 5861 5860 5860 5858 5857 5856 5854 5852 5850 5848 5846 5843 5840 5837 5834 5831 5828
5799 5803 5808 5812 5816 5820 5824 5828 5831 5835 5838 5840 5843 5845 5848 5850 5852 5853 5855 5856 5857 5858 5858 5859 5859 5858 5858 5857 5856 5855 5854 5852 5851 5849 5846 5844 5841 5839 5836 5833 5830 5826 5823
5792 5797 5801 5806 5811 5815 5819 5823 5826 5830 5833 5836 5839 5841 5844 5846 5848 5850 5851 5853 5854 5855 5855 5855 5855 5855 5855 5854 5853 5852 5850 5849 5847 5845 5842 5840 5837 5834 5831 5828 5825 5821 5818
5786 5791 5795 5800 5805 5809 5813 5817 5821 5825 5828 5831 5834 5837 5839 5842 5844 5846 5848 5849 5850 5851 5852 5852 5852 5852 5851 5850 5849 5848 5846 5845 5843 5840 5838 5835 5832 5829 5826 5823 5820 5816 5812
5779 5784 5789 5794 5799 5804 5808 5812 5816 5819 5823 5826 5829 5832 5835 5837 5840 5842 5844 5845 5846 5847 5848 5848 5848 5848 5847 5846 5845 5844 5842 5840 5838 5836 5833 5830 5827 5824 5821 5818 5814 5811 5807
5773 5778 5783 5788 5793 5798 5802 5806 5810 5814 5818 5821 5824 5828 5830 5833 5835 5838 5839 5841 5842 5843 5844 5844 5844 5843 5843 5842 5841 5839 5837 5836 5833 5831 5828 5825 5822 5819 5816 5812 5809 5805 5801
5766 5771 5777 5782 5787 5792 5796 5800 5804 5808 5812 5816 5819 5823 5825 5828 5831 5833 5835 5836 5838 5839 5839 5839 5839 5839 5838 5837 5836 5834 5833 5831 5828 5826 5823 5820 5817 5814 5810 5807 5803 5799 5795
5759 5765 5770 5775 5781 5785 5790 5794 5799 5803 5807 5811 5814 5817 5820 5823 5826 5828 5830 5832 5833 5834 5835 5835 5835 5834 5833 5832 5831 5829 5828 5826 5823 5821 5818 5815 5812 5808 5805 5801 5797 5793 5789
5752 5758 5763 5769 5774 5778 5783 5788 5793 5797 5801 5805 5809 5812 5815 5818 5821 5823 5825 5827 5828 5829 5830 5830 5830 5829 5828 5827 5826 5824 5822 5820 5818 5815 5812 5809 5806 5803 5799 5795 5791 5787 5783
5744 5750 5756 5762 5767 5772 5778 5783 5787 5791 5795 5799 5803 5806 5810 5813 5815 5817 5819 5821 5823 5824 5824 5824 5824 5824 5823 5822 5820 5818 5817 5814 5812 5809 5806 5803 5800 5796 5793 5789 5785 5780 5776
5737 5743 5749 5755 5760 5766 5772 5776 5780 5784 5789 5793 5797 5801 5804 5807 5809 5812 5814 5816 5817 5818 5818 5819 5818 5818 5817 5816 5814 5813 5811 5809 5806 5803 5800 5797 5794 5790 5786 5782 5778 5774 5769
5729 5735 5742 5748 5754 5759 5764 5769 5773 5778 5783 5787 5791 5795 5798 5801 5803 5806 5808 5810 5811 5812 5812 5812 5812 5812 5811 5810 5808 5807 5805 5803 5800 5797 5794 5790 5787 5783 5779 5775 5771 5767 5762
5722 5728 5734 5740 5746 5752 5757 5762 5767 5773 5778 5782 5785 5788 5791 5794 5797 5800 5802 5803 5805 5806 5806 5806 5806 5805 5804 5803 5801 5799 5798 5795 5793 5790 5787 5783 5780 5776 5772 5768 5764 5759 5755
5713 5720 5726 5732 5738 5744 5749 5755 5760 5766 5771 5774 5778 5781 5785 5788 5791 5793 5795 5797 5798 5799 5799 5799 5799 5798 5797 5796 5794 5792 5790 5788 5785 5783 5780 5776 5773 5769 5765 5761 5756 5752 5747
5704 5711 5718 5724 5730 5736 5742 5747 5753 5758 5763 5767 5771 5775 5778 5781 5784 5786 5788 5790 5791 5792 5792 5792 5791 5791 5790 5788 5787 5785 5782 5780 5777 5775 5772 5769 5765 5761 5757 5753 5749 5744 5739
Wind_Speed
23 22 21 20 19 19 18 17 16 15 14 13 12 11 10 9 9 8 8 7 7 7 7 8 8 8 8 8 9 9 9 10 10 11 12 12 13 14 14 15 16 17 17
24 23 22 21 20 20 19 18 17 16 15 14 13 12 11 10 9 9 8 8 8 8 8 8 8 8 8 8 9 9 9 10 10 11 12 13 14 15 15 16 17 18 18
25 24 23 22 21 20 19 18 18 17 16 15 14 13 12 11 10 9 9 9 9 8 8 8 8 8 8 8 9 10 10 10 11 12 13 14 15 16 16 17 18 19 20
26 26 25 24 23 21 20 19 19 18 17 16 14 14 13 12 11 10 10 9 9 9 9 8 8 8 8 9 10 10 10 11 12 13 14 15 16 17 18 18 19 20 21
28 27 26 25 24 23 21 20 19 18 18 17 16 15 14 13 12 11 11 10 10 9 9 9 8 8 9 10 10 11 11 12 13 14 15 16 17 18 19 20 21 22 23
29 29 28 26 25 24 23 21 20 19 19 18 16 15 15 14 13 12 11 11 10 10 9 9 9 9 9 10 11 12 12 13 14 15 16 17 18 19 20 21 23 24 25
31 30 29 28 27 25 24 22 21 20 20 19 17 16 15 15 14 13 12 11 11 10 10 9 9 9 10 11 12 12 13 14 15 16 17 18 19 20 22 23 24 25 26
33 32 31 29 28 26 25 24 23 22 21 20 18 17 16 15 15 14 13 12 11 11 10 10 10 10 11 12 13 13 14 15 16 17 18 20 21 22 23 24 25 26 27
33 33 33 31 30 28 26 25 24 23 22 21 19 18 17 16 16 15 14 13 12 12 11 11 11 11 12 13 14 14 15 16 17 18 19 21 22 23 24 26 27 28 29
34 34 33 33 31 30 28 26 25 24 23 22 20 19 18 17 17 16 15 14 13 12 12 12 12 12 13 14 14 15 16 18 19 20 21 22 23 24 26 27 28 29 29
35 34 34 34 33 31 29 28 27 25 24 23 21 20 19 18 18 17 16 14 14 13 13 13 13 13 14 14 15 16 18 19 20 21 22 24 24 25 27 28 29 29 30
35 35 35 34 34 32 30 29 28 26 25 24 23 21 20 19 18 17 16 15 15 14 14 14 14 14 15 15 16 18 19 20 21 22 24 25 26 27 28 29 30 30 31
37 36 35 35 34 32 31 30 29 27 26 25 24 23 21 20 19 18 17 16 16 15 15 15 15 15 16 16 18 19 20 21 22 24 25 26 27 28 29 30 31 32 32
38 37 37 36 34 33 32 31 30 29 27 26 25 23 22 21 20 19 18 17 17 16 16 16 16 17 17 18 19 20 22 23 24 25 26 27 28 29 30 31 32 33 34
40 39 38 37 35 34 33 32 31 30 28 27 25 24 23 21 21 20 19 18 18 17 17 17 18 18 19 20 21 22 23 24 25 26 27 28 29 30 31 32 33 34 35
41 40 39 38 36 35 34 33 32 31 29 28 26 25 23 22 22 21 20 20 19 19 18 18 19 20 20 21 22 23 24 26 27 28 29 30 31 32 33 33 34 35 36
41 41 40 39 38 36 35 34 33 32 31 29 28 26 25 24 23 22 22 21 20 20 20 20 20 21 21 23 24 25 26 27 28 29 30 31 32 33 34 35 35 36 37
42 42 41 40 39 37 36 35 34 32 31 30 29 27 26 25 24 24 23 22 21 21 21 21 21 22 23 24 25 26 27 29 30 30 31 32 33 34 35 35 36 37 38
43 42 42 40 39 38 37 36 34 33 32 31 30 28 27 27 26 25 24 23 23 22 22 22 22 23 24 25 27 28 29 30 31 31 32 33 34 35 36 36 37 38 38
43 43 42 41 40 39 37 36 35 34 32 32 31 30 29 28 27 26 25 24 24 24 24 24 24 25 26 27 28 29 30 31 32 32 33 34 35 36 37 37 38 39 39
44 44 43 42 41 39 37 35 34 34 33 33 32 31 30 28 28 27 27 26 25 25 25 25 26 26 28 28 29 30 31 32 33 34 35 35 36 37 37 38 38 39 40
45 44 43 43 42 40 38 37 36 35 34 34 33 32 31 30 29 29 28 27 27 26 26 27 27 28 29 30 31 32 32 33 34 35 36 36 37 37 38 38 39 39 40
46 45 44 43 42 41 40 39 38 37 36 34 33 33 32 31 31 30 29 29 29 28 28 29 29 30 31 32 33 33 34 34 35 36 37 38 38 38 38 39 39 40 41
47 45 45 44 43 42 41 40 39 37 36 35 35 34 34 33 32 31 31 30 30 30 30 31 31 31 32 33 34 35 36 36 37 37 38 38 38 38 39 39 40 41 42
49 47 46 45 44 44 43 41 41 39 38 38 37 36 35 34 33 32 32 32 31 31 32 32 33 33 34 35 35 36 37 38 38 39 39 39 39 39 39 40 41 42 42
51 49 48 47 46 45 44 43 42 41 40 39 38 37 36 35 34 34 33 33 33 33 34 34 34 35 35 36 36 37 38 39 39 40 40 39 39 39 40 41 42 43 43
Wind_Direction
227 228 227 225 224 224 224 224 225 226 228 231 235 239 242 246 249 254 259 265 272 279 284 286 289 294 299 304 307 309 312 314 317 319 320 321 321 322 321 318 317 317 315
227 228 228 226 225 226 226 227 228 229 232 234 238 241 243 245 247 252 257 261 268 276 279 282 284 290 295 300 305 309 313 316 317 319 319 320 319 319 318 317 316 315 315
227 227 227 227 227 228 228 229 231 234 236 236 238 241 242 243 245 250 253 260 268 274 277 279 282 287 292 299 305 309 312 315 317 318 318 318 318 317 317 317 316 316 315
227 228 228 228 227 229 230 231 233 236 237 237 238 239 241 242 245 248 253 261 269 273 274 277 282 287 293 299 305 308 312 315 316 316 316 316 317 317 317 317 316 315 314
227 227 228 228 228 230 231 232 234 236 237 237 238 238 239 241 244 248 255 261 267 268 272 277 281 286 293 299 304 307 311 313 314 314 315 315 316 317 317 316 315 314 313
227 228 227 227 228 229 231 233 235 236 236 236 237 238 239 241 245 251 256 259 262 266 271 275 279 286 292 298 303 306 309 312 313 314 315 315 316 316 316 316 314 313 312
228 227 227 227 228 229 230 232 236 236 235 236 237 238 239 242 246 251 253 255 260 264 269 274 278 283 290 298 303 307 311 314 315 316 316 316 317 317 317 316 315 314 313
228 227 227 228 228 228 230 233 235 235 235 236 237 238 240 243 247 250 251 255 258 263 268 272 276 282 290 297 303 307 311 314 315 316 316 316 317 317 317 316 315 314 313
228 228 228 228 228 229 231 234 235 234 235 236 237 238 240 244 247 249 250 254 257 260 265 270 276 283 290 298 303 307 311 313 315 316 316 317 317 317 318 317 316 315 314
229 228 228 228 229 230 231 234 234 234 235 236 236 237 240 244 246 248 249 252 255 258 264 270 276 284 292 298 303 308 310 313 314 315 315 317 317 318 318 317 317 316 315
230 229 229 228 229 230 232 233 234 234 235 236 237 238 241 243 245 246 247 250 254 259 264 270 277 285 292 297 303 307 310 312 313 313 314 316 317 317 318 317 317 317 316
230 229 229 228 229 230 232 233 233 233 234 236 238 239 240 242 244 245 246 249 254 260 265 270 276 285 292 297 302 307 310 311 312 313 314 316 316 317 318 317 317 317 317
230 228 228 228 229 230 231 232 232 233 234 236 239 239 240 241 243 243 245 249 254 260 265 271 277 286 292 296 302 306 309 311 312 313 314 316 316 317 318 318 317 317 317
229 227 227 227 227 229 230 231 231 233 235 236 237 237 239 240 241 241 245 248 254 260 266 271 278 286 291 295 300 305 309 311 312 313 314 316 316 317 318 318 317 317 317
228 227 227 226 227 228 230 230 232 234 235 236 236 236 238 240 240 241 244 248 253 260 266 272 279 285 290 295 299 304 307 310 312 313 314 315 316 317 317 318 318 317 317
227 227 227 228 228 228 229 230 232 234 234 235 235 235 237 238 239 242 244 249 254 260 266 272 279 284 289 294 299 303 307 310 311 312 313 314 315 316 317 317 317 317 317
228 228 228 228 228 229 230 231 232 233 233 234 234 235 236 237 239 242 245 249 255 261 266 273 280 284 289 294 298 302 306 308 310 311 312 313 315 316 317 317 317 317 317
228 228 228 228 229 229 231 232 232 232 232 233 233 234 236 237 239 242 246 250 256 261 266 274 281 285 289 294 298 301 304 307 309 310 312 313 315 315 316 316 316 316 316
228 228 228 229 229 229 231 231 231 231 232 232 233 234 236 238 240 243 247 251 256 261 267 275 280 285 289 294 297 300 303 306 308 309 311 313 314 315 315 315 316 316 316
229 229 229 229 228 228 230 231 231 231 231 231 232 233 236 239 241 244 248 252 257 262 269 275 280 285 289 294 297 299 302 304 306 308 309 311 312 313 314 314 314 315 315
229 229 229 229 229 229 230 231 231 230 230 230 231 233 237 240 242 245 248 252 257 264 270 276 280 284 289 293 296 298 300 302 305 307 308 310 311 312 312 313 313 314 314
229 229 229 229 229 229 230 231 230 229 229 230 231 235 239 241 244 246 249 253 258 265 271 276 280 284 288 292 295 297 299 301 303 306 308 309 310 311 311 311 312 313 313
229 229 229 229 229 229 229 229 230 230 230 231 234 237 239 242 244 247 250 255 260 266 271 276 280 285 288 291 294 296 298 300 302 305 306 308 309 309 309 310 311 312 312
229 229 229 229 228 228 228 229 230 231 232 233 235 237 240 243 245 248 252 257 262 266 271 276 280 284 287 291 293 295 298 300 302 303 305 306 307 308 308 309 310 310 311
229 229 229 229 229 229 229 230 230 231 233 234 236 239 241 244 247 250 253 258 263 267 272 276 279 283 286 290 293 295 297 299 301 302 304 305 306 306 307 308 308 309 310
230 229 229 230 230 230 231 231 232 233 234 235 237 240 242 245 248 251 255 259 264 268 272 275 278 283 286 289 292 294 296 298 300 301 302 303 304 305 306 306 307 308 309